[[{"header":{"parameterUnit":"m.s-1","parameterCategory":1,"la1":30.2991,"la2":30.254,"lo1":-89.0895,"lo2":-89.0444,"dy":0.0017,"dx":0.0017,"nx":28,"ny":28,"refTime":"2023-09-18T03:00:00:Z","depth":0,"parameterNumber":2,"parameterNumberName":"U-component_of_WINDS"},"data":[0,0,0,0,0,0,0,0,0,0,0,0,0,0,0,0,0,0,0,0,0,0,0,0,0,0,0,0,0,0,0,0,0,0,0,0,0,0,0,0,0,0,0,0,0,0,0,0,0,0,0,0,0,0,0,0,0,0,-2.5717,-2.5717,0,-2.5783,-2.5784,-2.5785,-2.5743,-2.5741,-2.5739,-2.5737,-2.5807,-2.581,-2.5814,0,0,0,0,0,0,0,0,0,0,0,0,0,-2.5555,-2.5558,-2.5716,-2.5717,-2.5718,-2.5783,-2.5784,-2.5785,-2.5743,-2.574,-2.5738,-2.5736,-2.5805,-2.581,-2.5814,0,0,0,0,0,0,0,0,0,0,0,0,0,-2.5624,-2.5559,-2.5716,-2.5705,-2.5705,-2.5783,-2.5784,-2.5785,-2.5743,-2.574,-2.5737,-2.5735,-2.5804,-2.5809,-2.5815,-2.5908,0,0,-2.5832,-2.5834,0,0,0,0,0,0,0,0,-2.562,-2.563,-2.5706,-2.5706,-2.5706,-2.5751,-2.5752,-2.5826,-2.5744,-2.5729,-2.5737,-2.5733,-2.5791,-2.5797,-2.5816,-2.5912,-2.5915,-2.5832,-2.5836,-2.5838,-2.584,0,0,0,0,0,0,0,-2.5615,-2.5627,-2.5743,-2.5707,-2.5707,-2.5697,-2.5704,-2.5766,-2.5776,-2.573,-2.5727,-2.5735,-2.579,-2.5811,-2.5818,-2.5916,-2.5832,-2.5837,-2.5841,-2.5843,-2.6091,-2.6094,0,0,0,0,0,0,-2.5611,-2.5623,-2.5741,-2.5745,-2.5655,-2.5703,-2.571,-2.574,-2.5775,-2.5777,-2.5738,-2.5733,-2.5803,-2.5811,-2.582,-2.5931,-2.5838,-2.5843,-2.5846,-2.6088,-2.6092,-2.6095,0,0,0,0,0,0,-2.5608,-2.5622,-2.5738,-2.5683,-2.5697,-2.5708,-2.5742,-2.5743,-2.5763,-2.5781,-2.5782,-2.5757,-2.5801,-2.5812,-2.5886,-2.5933,-2.5846,-2.5851,-2.6084,-2.6089,-2.6094,-2.6155,0,0,0,0,0,0,-2.5603,-2.5621,-2.5656,-2.5684,-2.57,-2.5803,-2.5745,-2.5746,-2.5773,-2.5767,-2.5799,-2.5802,-2.58,-2.5878,-2.5892,-2.5939,-2.5855,-2.608,-2.6086,-2.6092,-2.6149,-2.6161,-2.6172,0,0,0,0,0,-2.5598,-2.5671,-2.5658,-2.5673,-2.5744,-2.5806,-2.5815,-2.581,-2.5777,-2.5812,-2.5824,-2.5801,-2.5926,-2.5886,-2.5901,-2.5951,-2.6077,-2.6084,-2.6092,-2.6143,-2.6159,-2.6171,0,0,0,0,0,0,-2.5649,-2.5675,-2.566,-2.5745,-2.5774,-2.5798,-2.5843,-2.5827,-2.5866,-2.5859,-2.5852,-2.586,-2.5937,-2.5952,-2.5907,-2.6043,-2.5996,-2.6007,-2.603,-2.6045,-2.6057,-2.6051,-2.586,0,0,0,0,0,-2.567,-2.5717,-2.5737,-2.581,-2.5825,-2.5832,-2.5859,-2.5852,-2.5882,-2.5894,-2.591,-2.594,-2.5986,-2.6017,-2.606,-2.6151,-2.6157,-2.6192,-2.6204,-2.6213,-2.6222,-2.6271,-2.6287,-2.612,-2.6119,-2.6119,0,0,-2.5714,-2.5734,-2.5764,-2.5821,-2.5842,-2.5891,-2.5842,-2.5897,-2.5933,-2.5902,-2.5973,-2.5987,-2.602,-2.6103,-2.614,-2.6117,-2.627,-2.6223,-2.623,-2.6234,-2.6281,-2.6296,-2.631,-2.6125,-2.6124,-2.6123,0,0,-2.5819,-2.5839,-2.5902,-2.5924,-2.5957,-2.5961,-2.5976,-2.6004,-2.6011,-2.6082,-2.606,-2.6104,-2.6184,-2.6208,-2.6231,-2.6346,-2.6326,-2.6361,-2.6421,-2.6469,-2.6482,-2.6493,-2.6534,-2.6548,-2.637,-2.637,-2.637,0,-2.587,-2.5942,-2.5936,-2.5992,-2.6018,-2.5991,-2.6055,-2.6077,-2.6123,-2.6141,-2.6115,-2.6214,-2.6235,-2.6323,-2.6351,-2.6371,-2.6388,-2.6356,-2.648,-2.6492,-2.6503,-2.6541,-2.6556,-2.6374,-2.6373,-2.6373,-2.6373,0,-2.6003,-2.6054,-2.6101,-2.6144,-2.6175,-2.6235,-2.6238,-2.6271,-2.6262,-2.6269,-2.6342,-2.6366,-2.6414,-2.6435,-2.6427,-2.6522,-2.6507,-2.6481,-2.6433,-2.6522,-2.6559,-2.6573,-2.6379,-2.6378,-2.6377,-2.6376,0,0,-2.6141,-2.6181,-2.6198,-2.6217,-2.6252,-2.6291,-2.635,-2.6396,-2.6424,-2.6457,-2.6506,-2.6574,-2.655,-2.6576,-2.6571,-2.6614,-2.6703,-2.6582,-2.6583,-2.6603,-2.6808,-2.6827,-2.6844,-2.6691,-2.6693,-2.6696,-2.6805,0,-2.6248,-2.6349,-2.6345,-2.644,-2.6487,-2.6463,-2.6514,-2.6541,-2.655,-2.6592,-2.6602,-2.665,-2.6615,-2.663,-2.6671,-2.6683,-2.6744,-2.6675,-2.6736,-2.6738,-2.6727,-2.6863,-2.6882,-2.6984,-2.6819,-2.6822,-2.6823,0,-2.6385,-2.6421,-2.6521,-2.6548,-2.6567,-2.6613,-2.6655,-2.6695,-2.6726,-2.6729,-2.6759,-2.6747,-2.6808,-2.676,-2.6843,-2.6796,-2.6821,-2.6831,-2.6835,-2.684,-2.6785,-2.687,-2.7017,-2.7032,-2.6846,-2.6844,-2.6842,0,-2.6475,-2.6549,-2.6618,-2.6635,-2.6669,-2.6702,-2.6718,-2.6745,-2.6773,-2.681,-2.6828,-2.6872,-2.6896,-2.6931,-2.6932,-2.6897,-2.7016,-2.6968,-2.7021,-2.7021,-2.7046,-2.7044,-2.7198,-2.7064,-2.7063,-2.7063,-2.7063,0,-2.6593,-2.6655,-2.6658,-2.67,-2.6769,-2.6764,-2.6832,-2.6845,-2.687,-2.6915,-2.6898,-2.694,-2.694,-2.6984,-2.6985,-2.7054,-2.7065,-2.707,-2.7069,-2.707,-2.707,-2.7086,-2.7078,-2.7067,-2.7066,-2.7066,-2.7065,0,-2.6705,-2.671,-2.6783,-2.6809,-2.6817,-2.6866,-2.6888,-2.6929,-2.6936,-2.6993,-2.7006,-2.7018,-2.7069,-2.7074,-2.7133,-2.7134,-2.7216,-2.7209,-2.7205,-2.7204,-2.7256,-2.725,-2.7424,-2.7447,-2.7299,-2.73,-2.7302,0,-2.678,-2.6826,-2.6857,-2.6885,-2.6902,-2.6949,-2.6977,-2.6975,-2.7005,-2.7043,-2.7079,-2.7128,-2.7167,-2.7249,-2.7263,-2.7308,-2.7301,-2.7359,-2.7308,-2.7308,-2.7301,-2.7298,-2.7302,-2.7369,-2.737,-2.7372,-2.7373,0,-2.6912,-2.6912,-2.6952,-2.6994,-2.7028,-2.7061,-2.7092,-2.7117,-2.7118,-2.7153,-2.7204,-2.7234,-2.7294,-2.7343,-2.7387,-2.7405,-2.7389,-2.7389,-2.7403,-2.7404,-2.74,-2.7403,-2.7231,-2.7385,-2.7383,-2.7382,-2.7382,-2.7381,-2.7007,-2.7047,-2.7074,-2.712,-2.7143,-2.7173,-2.7212,-2.7224,-2.7266,-2.7314,-2.731,-2.7367,-2.7397,-2.7455,-2.7475,-2.752,-2.75,-2.7521,-2.7527,-2.7532,-2.7536,-2.7394,-2.7528,-2.7528,-2.7527,-2.7527,-2.7527,0,-2.7137,-2.7154,-2.7196,-2.7239,-2.7276,-2.7258,-2.7291,-2.7323,-2.7372,-2.7401,-2.7439,-2.7498,-2.7545,-2.7564,-2.761,-2.7642,-2.7636,-2.7654,-2.7652,-2.7656,-2.7551,-2.7534,-2.7658,-2.7658,-2.7658,-2.7658,-2.7658,-2.7658,-2.721,-2.7276,-2.728,-2.7358,-2.7374,-2.7428,-2.7449,-2.7476,-2.7499,-2.7565,-2.7603,-2.7615,-2.7639,-2.7687,-2.773,-2.7734,-2.7752,-2.7773,-2.7774,-2.7676,-2.7663,-2.765,-2.7634,-2.7777,-2.7777,-2.7875,-2.7876,-2.7876]},{"header":{"parameterUnit":"m.s-1","parameterCategory":1,"la1":30.2991,"la2":30.254,"lo1":-89.0895,"lo2":-89.0444,"dy":0.0017,"dx":0.0017,"nx":28,"ny":28,"refTime":"2023-09-18T03:00:00:Z","depth":0,"parameterNumber":3,"parameterNumberName":"V-component_of_WINDS"},"data":[0,0,0,0,0,0,0,0,0,0,0,0,0,0,0,0,0,0,0,0,0,0,0,0,0,0,0,0,0,0,0,0,0,0,0,0,0,0,0,0,0,0,0,0,0,0,0,0,0,0,0,0,0,0,0,0,0,0,1.8475,1.8475,0,1.8444,1.8443,1.8443,1.8422,1.8422,1.8421,1.8421,1.8387,1.8386,1.8386,0,0,0,0,0,0,0,0,0,0,0,0,0,1.8515,1.8514,1.8475,1.8475,1.8475,1.8444,1.8443,1.8443,1.8422,1.8422,1.8421,1.8421,1.8387,1.8387,1.8386,0,0,0,0,0,0,0,0,0,0,0,0,0,1.8492,1.8514,1.8475,1.846,1.8459,1.8444,1.8443,1.8443,1.8422,1.8422,1.8421,1.8421,1.8388,1.8387,1.8386,1.8383,0,0,1.8382,1.8381,0,0,0,0,0,0,0,0,1.8493,1.849,1.8463,1.8461,1.8459,1.8437,1.8445,1.8423,1.8422,1.8436,1.8421,1.8421,1.8404,1.8401,1.8396,1.8381,1.838,1.8382,1.8381,1.8381,1.838,0,0,0,0,0,0,0,1.8495,1.8492,1.8463,1.8463,1.846,1.8454,1.8451,1.8441,1.8421,1.8434,1.8433,1.843,1.8403,1.8397,1.8395,1.8379,1.8382,1.8381,1.838,1.838,1.836,1.836,0,0,0,0,0,0,1.8499,1.8493,1.8464,1.8462,1.8476,1.8454,1.845,1.8444,1.8421,1.8418,1.843,1.8429,1.8399,1.8396,1.8393,1.8388,1.8381,1.838,1.8379,1.8359,1.836,1.836,0,0,0,0,0,0,1.85,1.8497,1.8465,1.8477,1.8473,1.8453,1.8447,1.8444,1.8438,1.8418,1.8414,1.8428,1.8399,1.8395,1.8385,1.8387,1.8379,1.8378,1.8359,1.8359,1.836,1.8378,0,0,0,0,0,0,1.8501,1.8497,1.8497,1.8477,1.8472,1.8458,1.8447,1.8443,1.8436,1.8434,1.8415,1.8411,1.8398,1.8387,1.8384,1.8385,1.8377,1.8359,1.8359,1.836,1.8377,1.8378,1.838,0,0,0,0,0,1.8503,1.8503,1.8497,1.8493,1.8471,1.8459,1.8455,1.8441,1.8436,1.8435,1.8422,1.8412,1.8387,1.8387,1.8383,1.8383,1.8359,1.8359,1.836,1.8376,1.8378,1.838,0,0,0,0,0,0,1.8522,1.85,1.8493,1.8487,1.8475,1.8455,1.8453,1.8444,1.8432,1.8431,1.8413,1.8409,1.8401,1.8391,1.8391,1.8379,1.8372,1.8371,1.8385,1.8387,1.8389,1.8391,1.8376,0,0,0,0,0,1.8526,1.8518,1.8499,1.8495,1.849,1.8473,1.8467,1.8456,1.8443,1.8438,1.8424,1.8411,1.84,1.8393,1.8382,1.8375,1.837,1.8373,1.8375,1.8376,1.8376,1.8371,1.8372,1.8361,1.8361,1.8361,0,0,1.8533,1.852,1.8516,1.8499,1.8488,1.848,1.8468,1.846,1.8454,1.8436,1.8426,1.8416,1.84,1.8391,1.8387,1.8383,1.8378,1.8377,1.8378,1.8377,1.8371,1.8372,1.8373,1.8361,1.8361,1.8361,0,0,1.8542,1.8532,1.8527,1.8517,1.8501,1.849,1.8489,1.847,1.8463,1.8452,1.8439,1.843,1.8412,1.8401,1.8393,1.8397,1.8387,1.8394,1.8401,1.8396,1.8397,1.8398,1.8398,1.8399,1.8394,1.8394,1.8394,0,1.8553,1.8541,1.8526,1.8519,1.8511,1.8495,1.849,1.848,1.8462,1.8456,1.8452,1.8428,1.8416,1.8405,1.8406,1.84,1.8397,1.8396,1.8398,1.8399,1.8399,1.8399,1.84,1.8394,1.8394,1.8394,1.8394,0,1.8554,1.8546,1.8544,1.8527,1.8519,1.8513,1.8496,1.849,1.848,1.8469,1.8458,1.8443,1.8428,1.8425,1.8415,1.8411,1.8409,1.8402,1.8394,1.8401,1.8401,1.8401,1.8396,1.8395,1.8395,1.8395,0,0,1.8575,1.8549,1.8549,1.854,1.8521,1.8514,1.8507,1.8493,1.8487,1.8475,1.8467,1.8452,1.8445,1.8436,1.8425,1.842,1.8423,1.8413,1.8413,1.8415,1.8417,1.8422,1.8422,1.8416,1.8416,1.8416,1.8418,0,1.858,1.8567,1.8553,1.8544,1.8535,1.852,1.8513,1.85,1.8489,1.848,1.8467,1.8456,1.8448,1.8443,1.8438,1.8424,1.8423,1.8424,1.8408,1.8408,1.8412,1.8422,1.8428,1.843,1.8418,1.8418,1.8418,0,1.8585,1.8573,1.8563,1.8545,1.8541,1.8535,1.8521,1.8512,1.8497,1.8489,1.8479,1.8467,1.8457,1.8451,1.8436,1.8437,1.843,1.8422,1.8422,1.8419,1.8413,1.8419,1.843,1.843,1.8417,1.8417,1.8417,0,1.8599,1.8581,1.8573,1.8566,1.8545,1.8541,1.8532,1.8516,1.8509,1.8496,1.849,1.8476,1.8468,1.8457,1.8442,1.8439,1.8428,1.8421,1.8421,1.8421,1.8419,1.8419,1.8428,1.8415,1.8415,1.8415,1.8415,0,1.8606,1.8601,1.8579,1.8574,1.8567,1.8551,1.8544,1.8533,1.852,1.8511,1.8497,1.8489,1.8469,1.8459,1.8446,1.8436,1.8432,1.8425,1.8422,1.8426,1.8427,1.8421,1.842,1.8415,1.8415,1.8415,1.8415,0,1.8622,1.8607,1.8597,1.8577,1.8572,1.8568,1.855,1.8544,1.8532,1.8522,1.8518,1.8499,1.8486,1.847,1.8451,1.8443,1.8433,1.8428,1.8438,1.8436,1.8436,1.8436,1.8441,1.8441,1.8429,1.8429,1.8429,0,1.8627,1.8622,1.8602,1.8596,1.8587,1.8577,1.8569,1.8553,1.8545,1.8527,1.8523,1.8509,1.8496,1.8476,1.846,1.8445,1.844,1.8442,1.8437,1.8441,1.8439,1.8439,1.8438,1.8443,1.8444,1.8444,1.8444,0,1.8637,1.863,1.862,1.8606,1.8597,1.8586,1.8574,1.8569,1.855,1.8542,1.8529,1.8519,1.85,1.8486,1.8469,1.8459,1.8448,1.8446,1.8445,1.8449,1.8455,1.8451,1.8441,1.8446,1.8445,1.8445,1.8445,1.8445,1.8647,1.8642,1.8627,1.8615,1.8605,1.8593,1.8587,1.8574,1.8563,1.8547,1.8538,1.8524,1.8508,1.8485,1.8474,1.8463,1.8459,1.8458,1.8457,1.8457,1.8458,1.8457,1.846,1.846,1.846,1.846,1.846,0,1.8656,1.8645,1.8635,1.8619,1.861,1.8601,1.8587,1.8579,1.8568,1.8555,1.8543,1.8527,1.8513,1.8496,1.8481,1.8475,1.8469,1.8471,1.8471,1.8469,1.8463,1.8465,1.8476,1.8476,1.8476,1.8476,1.8476,1.8476,1.8659,1.865,1.8641,1.8626,1.8615,1.8603,1.8596,1.8585,1.8574,1.8557,1.8546,1.8535,1.8519,1.8503,1.8489,1.8484,1.8479,1.8482,1.8476,1.8471,1.8469,1.8468,1.847,1.8481,1.8481,1.8482,1.8482,1.8482]}]]